Back to catalog

COSMOS 2251 DEB

AliveVLEO
NORAD 35073·DEBRIS·🇷🇺 Russia

Launched Jun 16, 1993 from Plesetsk Cosmodrome

Loading…

Next Passes (next 24 hours)

TLE

AgingSource: Space-Track

Epoch: Sep 11, 2026, 07:28 UTC

1 35073U 93036AJC 26254.31123493  .00055463  00000-0  19833-2 0  9993
2 35073  73.9811 122.4261 0018477 169.7050 190.4534 15.28377249716055

Track COSMOS 2251 DEB in real time with AllMySat

Download on the App Store